St. Johns, AZ

1:28 PM MST on November 15, 2019 (GMT -0700)
Saint Johns Industrial

Weather History for KSJN - July, 2019

Change the Weather History Date:

Wednesday, July 31, 2019

  Actual Average (KLSB) Record (KLSB)
Temperature  
Mean Temperature 64 °F -  
Max Temperature 71 °F 95 °F 96 °F (2013)
Min Temperature 57 °F 64 °F 64 °F (2015)
Degree Days  
Heating Degree Days 1    
Growing Degree Days 14 (Base 50)    
Moisture  
Dew Point 59 °F    
Average Humidity 70    
Maximum Humidity 91    
Minimum Humidity 39    
Precipitation  
Precipitation 0.16 in - - ()
Sea Level Pressure  
Sea Level Pressure 30.07 in    
Wind  
Wind Speed 5 mph (WSW)    
Max Wind Speed 21 mph    
Max Gust Speed 31 mph    
Visibility 9 miles    
Events Rain , Thunderstorm    
Averages and records for this station are not official NWS values.
T = Trace of Precipitation, MM = Missing Value Source: NWS Daily Summary

Daily Weather History Graph

Daily Weather History Graph

Search for Another Location

Airport or City:

Astronomy

Jul. 31, 2019 Rise Set
Actual Time 5:27 AM MST 7:20 PM MST
Civil Twilight 4:59 AM MST 7:47 PM MST
Nautical Twilight 4:25 AM MST 8:21 PM MST
Astronomical Twilight 3:50 AM MST 8:56 PM MST
Moon 4:46 AM MST (7/31) 7:21 PM MST (7/31)
Length of Visible Light 14h 48m
Length of Day
13h 53m
Waning Crescent, 0% of the Moon is Illuminated
Jul 31
Waning Crescent
Jul 31
New
Aug 7
First Quarter
Aug 15
Full
Aug 23
Last Quarter

Hourly Weather History & Observations

Time (MST) Temp. Heat Index Dew Point Humidity Pressure Visibility Wind Dir Wind Speed Gust Speed Precip Events Conditions
12:54 AM 66.0 °F - 61.0 °F 84% 29.94 in 10.0 mi ENE 3.5 mph - N/A   Clear
1:54 AM 66.0 °F - 60.1 °F 81% 29.91 in 10.0 mi Calm Calm - N/A   Clear
2:54 AM 64.0 °F - 60.1 °F 87% 29.93 in 10.0 mi Calm Calm - N/A   Clear
3:54 AM 64.0 °F - 60.1 °F 87% 29.92 in 10.0 mi SE 3.5 mph - N/A   Clear
4:54 AM 62.1 °F - 59.0 °F 90% 29.96 in 10.0 mi Calm Calm - N/A   Clear
5:54 AM 62.1 °F - 59.0 °F 90% 29.97 in 10.0 mi SE 3.5 mph - N/A   Clear
6:54 AM 64.0 °F - 60.1 °F 87% 29.98 in 10.0 mi Calm Calm - N/A   Clear
7:54 AM 68.0 °F - 59.0 °F 73% 29.98 in 10.0 mi Calm Calm - N/A   Clear
8:54 AM 73.9 °F - 59.0 °F 59% 29.97 in 10.0 mi ENE 3.5 mph - N/A   Clear
9:54 AM 75.9 °F - 55.9 °F 50% 29.97 in 10.0 mi Variable 3.5 mph - N/A   Clear
10:31 AM 82.0 °F 81.6 °F 55.9 °F 41% 30.26 in 10.0 mi WNW 9.2 mph - N/A Thunderstorm Clear
10:40 AM 81.0 °F 80.5 °F 54.0 °F 39% 30.27 in 10.0 mi West 9.2 mph - N/A Thunderstorm Thunderstorm
10:54 AM 77.0 °F - 55.9 °F 48% 29.98 in 10.0 mi WNW 20.7 mph 31.1 mph N/A Thunderstorm Thunderstorm
11:01 AM 78.1 °F - 55.0 °F 45% 30.26 in 10.0 mi WNW 20.7 mph 27.6 mph N/A Thunderstorm Partly Cloudy
11:17 AM 75.0 °F - 53.1 °F 46% 30.26 in 10.0 mi West 18.4 mph - N/A   Partly Cloudy
11:54 AM 70.0 °F - 61.0 °F 73% 30.00 in 7.0 mi West 10.4 mph - 0.02 in Rain , Thunderstorm Light Rain
12:20 PM 78.1 °F - 61.0 °F 56% 30.25 in 10.0 mi NW 11.5 mph - 0.00 in   Partly Cloudy
12:54 PM 82.9 °F 82.4 °F 57.0 °F 41% 29.95 in 10.0 mi NNW 11.5 mph - 0.00 in   Partly Cloudy
1:46 PM 73.0 °F - 62.1 °F 68% 30.23 in 3.0 mi West 17.3 mph - 0.06 in Rain , Thunderstorm Heavy Thunderstorms and Rain
1:54 PM 73.0 °F - 64.9 °F 76% 29.97 in 3.0 mi West 9.2 mph - 0.08 in Rain , Thunderstorm Light Thunderstorms and Rain
2:03 PM 75.9 °F - 64.9 °F 69% 30.22 in 10.0 mi West 9.2 mph - 0.00 in Rain Light Rain
2:34 PM 77.0 °F - 59.0 °F 54% 30.22 in 10.0 mi WNW 11.5 mph - 0.00 in Thunderstorm Clear
2:54 PM 75.9 °F - 57.0 °F 52% 29.96 in 10.0 mi West 6.9 mph - 0.00 in Thunderstorm Scattered Clouds
3:09 PM 73.9 °F - 57.0 °F 55% 30.24 in 10.0 mi WSW 3.5 mph - N/A Thunderstorm Thunderstorm
3:21 PM 73.0 °F - 55.9 °F 55% 30.24 in 10.0 mi Calm Calm - N/A   Overcast
3:29 PM 73.0 °F - 57.0 °F 57% 30.24 in 10.0 mi SSW 3.5 mph - 0.00 in Rain , Thunderstorm Light Rain
3:54 PM 68.0 °F - 61.0 °F 78% 30.01 in 4.0 mi ENE 9.2 mph - 0.03 in Rain , Thunderstorm Thunderstorms and Rain
4:03 PM 66.9 °F - 61.0 °F 81% 30.23 in 3.0 mi ENE 12.7 mph - 0.03 in Rain Rain
4:54 PM 71.1 °F - 63.0 °F 75% 29.99 in 10.0 mi SSE 4.6 mph - 0.03 in   Overcast
5:54 PM 66.0 °F - 62.1 °F 87% 30.01 in 7.0 mi SSW 11.5 mph - 0.05 in Rain Light Rain
6:54 PM 66.9 °F - 63.0 °F 87% 30.01 in 10.0 mi SSW 3.5 mph - 0.04 in   Overcast
7:54 PM 66.9 °F - 61.0 °F 81% 30.00 in 10.0 mi SSW 6.9 mph - N/A   Overcast
8:54 PM 66.0 °F - 60.1 °F 81% 30.00 in 10.0 mi SSW 3.5 mph - 0.00 in   Mostly Cloudy
9:54 PM 66.0 °F - 62.1 °F 87% 30.00 in 10.0 mi ESE 3.5 mph - 0.02 in Rain Light Rain
10:54 PM 64.9 °F - 61.0 °F 87% 30.00 in 10.0 mi Calm Calm - 0.02 in   Scattered Clouds
11:54 PM 66.0 °F - 62.1 °F 87% 30.01 in 10.0 mi Calm Calm - N/A   Mostly Cloudy